Location: Unspecified
(51.5147°N, 7.4673°E)
Time: 12:45:09
(UTC+01:00)

Explorer 7 - Pass Details

Date: 17 February 2026
Orbit: 430 x 541 km, 50.2° (Epoch: 8 March)

Event Time Altitude Azimuth Distance (km) Brightness Sun altitude
Rises 19:31:37 0° 276° (W) 2,512 12.0 -16.6°
Reaches altitude 10° 19:33:45 10° 273° (W) 1,654 10.6 -16.9°
Maximum altitude 19:37:27 63° 192° (SSW) 553 6.8 -17.5°
Enters shadow 19:38:41 39° 127° (SE) 763 7.1 -17.7°
